Total_Precipitation_Accumulation
0.05 0.09 0.10 0.13 0.14 0.17 0.23 0.27 0.34 0.43 0.43 0.50 0.60 0.84 0.95 1.13 1.29 1.50 1.60 1.64 1.59 1.66 1.86 2.18 2.64 3.34 3.79 3.97 4.08 4.25 4.26 4.31 4.33 4.32 4.34 4.53 4.71 4.74 4.71 4.83 4.86 4.73 4.65 4.79
0.10 0.11 0.09 0.11 0.15 0.17 0.25 0.30 0.36 0.44 0.41 0.49 0.67 0.88 1.01 1.16 1.29 1.40 1.48 1.50 1.48 1.50 1.75 2.18 2.64 3.10 3.39 3.74 3.96 4.21 4.23 4.37 4.62 5.01 5.52 5.81 5.93 5.79 5.62 5.50 5.42 5.28 5.17 5.27
0.12 0.09 0.06 0.08 0.15 0.19 0.26 0.29 0.38 0.47 0.53 0.56 0.75 1.15 1.24 1.31 1.46 1.61 1.61 1.67 1.72 1.58 1.74 2.06 2.28 2.66 2.96 3.35 3.70 4.00 4.34 4.73 5.21 5.88 6.68 7.01 6.76 6.32 6.09 5.75 5.68 5.45 5.23 5.20
0.08 0.06 0.07 0.08 0.11 0.16 0.23 0.20 0.28 0.35 0.52 0.66 0.65 1.24 1.56 1.69 1.82 1.95 1.78 1.70 1.75 1.75 1.73 1.86 2.10 2.39 2.60 2.98 3.46 3.95 4.51 5.09 5.73 6.34 6.82 7.06 6.94 6.63 6.29 5.82 5.42 5.04 4.74 4.54
0.09 0.08 0.12 0.16 0.11 0.14 0.15 0.16 0.21 0.27 0.39 0.58 0.59 0.96 1.59 1.87 1.99 2.02 1.86 1.79 1.74 1.71 1.60 1.70 1.88 2.13 2.45 2.90 3.38 3.87 4.39 5.11 5.61 6.15 6.57 6.83 6.83 6.69 6.27 5.55 4.88 4.46 4.13 3.88
0.08 0.09 0.13 0.13 0.10 0.12 0.15 0.18 0.25 0.33 0.44 0.69 0.58 0.86 1.64 2.07 2.13 2.00 1.92 1.88 1.72 1.67 1.69 1.71 1.76 1.94 2.40 2.83 3.34 3.71 4.05 4.78 5.48 5.99 6.36 6.67 6.63 6.39 5.74 5.00 4.41 4.04 3.74 3.50
0.18 0.15 0.13 0.12 0.13 0.14 0.17 0.31 0.61 0.78 0.87 0.81 0.57 0.90 1.65 1.83 1.80 1.79 1.66 1.59 1.63 1.62 1.59 1.61 1.81 1.97 2.49 2.89 3.19 3.45 3.70 4.13 4.66 5.13 5.47 5.69 5.73 5.47 5.02 4.56 4.07 3.70 3.46 3.20
0.32 0.27 0.16 0.12 0.11 0.14 0.18 0.30 0.70 0.98 1.02 0.92 0.88 1.52 2.02 1.76 1.68 1.71 1.66 1.49 1.48 1.58 1.54 1.55 1.78 2.02 2.20 2.46 2.72 3.02 3.23 3.48 3.74 4.00 4.27 4.26 4.27 4.25 4.04 3.66 3.22 2.93 2.63 2.46
0.35 0.31 0.16 0.11 0.09 0.12 0.19 0.24 0.31 0.53 0.62 0.92 1.31 1.74 2.13 2.01 1.92 1.71 1.60 1.54 1.53 1.52 1.51 1.59 1.78 1.92 1.99 2.14 2.36 2.56 2.69 2.86 2.93 2.90 2.90 2.98 2.98 3.02 3.00 2.84 2.54 2.20 1.93 1.78
0.30 0.31 0.22 0.16 0.12 0.13 0.18 0.23 0.33 0.64 0.93 1.21 1.48 2.10 2.59 2.56 2.29 1.97 1.70 1.55 1.42 1.46 1.52 1.61 1.73 1.90 1.99 2.00 2.16 2.28 2.27 2.30 2.36 2.40 2.31 2.22 2.30 2.36 2.35 2.31 2.12 1.91 1.71 1.55
0.33 0.40 0.31 0.21 0.22 0.22 0.23 0.28 0.39 0.61 0.76 1.28 1.78 2.45 2.43 2.50 2.32 2.16 2.06 1.72 1.53 1.59 1.63 1.71 1.68 1.71 1.72 1.76 1.80 1.88 1.90 1.91 1.93 1.95 1.97 1.96 1.90 1.86 1.85 1.89 1.84 1.71 1.60 1.47
0.35 0.41 0.45 0.32 0.27 0.23 0.26 0.30 0.43 0.77 0.90 1.04 1.57 2.43 2.03 2.34 2.44 2.30 2.16 1.87 1.75 1.74 1.73 1.80 1.75 1.64 1.64 1.72 1.75 1.75 1.76 1.73 1.74 1.72 1.76 1.82 1.69 1.61 1.60 1.62 1.60 1.47 1.43 1.39
0.33 0.47 0.70 0.75 0.64 0.42 0.37 0.34 0.38 0.50 0.79 1.03 1.49 2.33 2.15 2.29 2.46 2.23 2.00 1.86 1.83 1.85 1.88 2.00 1.92 1.73 1.67 1.66 1.64 1.53 1.52 1.52 1.38 1.35 1.47 1.58 1.46 1.36 1.39 1.38 1.37 1.35 1.30 1.26
0.27 0.53 0.94 1.35 1.13 0.64 0.49 0.38 0.36 0.47 0.80 0.99 1.28 1.79 1.97 2.10 2.12 2.02 1.95 1.88 1.86 1.84 1.83 1.96 1.96 1.76 1.72 1.59 1.53 1.38 1.29 1.30 1.26 1.23 1.25 1.31 1.33 1.29 1.25 1.24 1.23 1.19 1.13 1.08
0.30 0.54 0.62 0.59 0.47 0.45 0.46 0.41 0.40 0.50 0.62 0.96 1.24 1.55 1.81 2.08 2.17 2.16 2.01 1.88 1.83 1.80 1.84 1.96 1.89 1.70 1.69 1.66 1.57 1.35 1.25 1.25 1.25 1.28 1.29 1.26 1.24 1.15 1.15 1.17 1.15 1.05 1.01 0.94
0.32 0.46 0.52 0.54 0.45 0.46 0.53 0.53 0.52 0.59 0.70 0.92 1.21 1.63 1.92 2.23 2.25 2.11 1.95 1.87 1.95 1.93 1.89 1.85 1.78 1.72 1.71 1.69 1.63 1.42 1.27 1.21 1.24 1.32 1.33 1.28 1.24 1.17 1.13 1.15 1.15 1.09 1.07 1.03
0.39 0.55 0.80 0.76 0.54 0.69 1.07 0.90 0.84 0.89 0.91 1.12 1.39 1.63 1.80 2.04 2.16 2.12 1.98 2.00 2.15 2.11 2.14 2.06 1.92 1.90 1.91 1.79 1.61 1.52 1.35 1.27 1.25 1.27 1.25 1.29 1.29 1.20 1.12 1.07 1.16 1.16 1.16 1.07
0.47 0.68 0.94 0.91 1.02 1.57 1.45 0.93 0.90 1.02 0.98 1.02 1.14 1.26 1.44 1.67 1.77 1.79 1.86 1.99 2.14 2.17 2.15 2.07 1.97 1.98 1.92 1.79 1.69 1.60 1.43 1.30 1.24 1.21 1.14 1.16 1.20 1.21 1.15 1.13 1.15 1.17 1.21 1.19
0.41 0.74 1.14 1.21 1.47 1.67 1.48 1.06 0.94 1.23 1.48 1.09 1.08 1.14 1.22 1.24 1.49 1.79 1.74 1.71 1.88 1.97 1.96 1.94 1.91 1.94 1.86 1.73 1.63 1.57 1.45 1.27 1.13 1.11 1.10 1.05 1.03 1.03 1.04 1.04 1.10 1.23 1.26 1.18
0.42 0.71 1.21 1.40 1.81 2.06 1.65 0.90 0.76 1.26 2.06 1.34 1.21 1.21 1.35 1.46 1.81 1.84 1.52 1.48 1.60 1.72 1.74 1.72 1.69 1.70 1.71 1.65 1.56 1.53 1.48 1.32 1.11 0.98 0.93 0.94 0.99 0.98 0.98 1.02 1.10 1.11 1.16 1.14
0.84 1.00 1.23 1.49 1.98 1.97 1.15 0.72 0.89 1.88 2.16 1.41 1.31 1.31 1.38 1.49 1.61 1.48 1.31 1.43 1.57 1.62 1.63 1.51 1.41 1.40 1.43 1.43 1.40 1.38 1.31 1.17 0.93 0.82 0.80 0.83 0.85 0.86 0.86 0.97 1.02 1.01 0.99 1.03
1.27 1.50 1.60 1.76 2.15 2.17 1.07 0.91 1.46 1.75 1.26 1.22 1.31 1.27 1.26 1.16 1.07 1.15 1.24 1.42 1.53 1.58 1.54 1.39 1.32 1.21 1.14 1.11 1.19 1.25 1.12 0.91 0.79 0.74 0.72 0.72 0.72 0.66 0.67 0.88 0.96 0.96 1.01 0.98
1.34 1.63 1.81 2.02 2.16 1.70 1.14 1.19 1.23 1.19 1.17 1.12 1.17 1.08 1.04 1.06 1.06 1.12 1.20 1.32 1.46 1.44 1.36 1.22 1.11 1.00 0.91 0.97 1.04 1.02 0.93 0.78 0.68 0.72 0.76 0.72 0.66 0.68 0.67 0.72 0.79 0.86 0.95 0.89
1.38 1.30 1.46 1.69 1.71 1.44 1.24 1.15 1.06 0.99 1.02 0.99 1.06 1.09 1.09 1.10 1.09 1.11 1.16 1.18 1.31 1.32 1.20 1.06 1.02 0.93 0.89 0.87 0.81 0.78 0.67 0.66 0.68 0.75 0.79 0.76 0.73 0.72 0.65 0.61 0.56 0.58 0.65 0.69
1.30 1.45 1.69 1.82 1.73 1.54 1.35 1.10 0.99 1.00 1.02 1.04 1.10 1.09 1.08 1.13 1.16 1.16 1.14 1.08 1.12 1.13 1.04 0.93 0.98 0.95 0.88 0.78 0.71 0.64 0.59 0.61 0.76 0.80 0.75 0.72 0.67 0.63 0.60 0.52 0.46 0.44 0.47 0.54
1.03 1.40 1.83 1.92 1.57 1.49 1.41 1.23 1.09 1.14 1.24 1.20 1.12 1.08 1.00 1.04 1.04 0.99 0.95 0.89 0.91 0.94 0.86 0.83 0.87 0.88 0.82 0.73 0.69 0.60 0.53 0.53 0.65 0.72 0.70 0.63 0.59 0.55 0.49 0.48 0.46 0.39 0.36 0.39